Location: Newark
(3.0500°N, 36.0167°E)
Time: 21:51:37
(UTC+00:00)

Courier 1B - All Passes

Search period start: 24 August 2019 00:00
Search period end: 03 September 2019 00:00
Orbit: 962 x 1209 km, 28.3° (Epoch: 23 August)

Date Brightness Start Highest point End Pass type
(mag) Time Alt. Az. Time Alt. Az. Time Alt. Az.
24 Aug - 00:13:12 10° W 00:18:43 25° SSW 00:24:30 10° SSE visible
24 Aug - 07:59:54 10° SSW 08:04:33 17° SSE 08:09:08 10° ESE daylight
24 Aug - 09:51:56 10° SW 09:59:26 52° SSE 10:06:33 10° ENE daylight
24 Aug - 11:46:32 10° WSW 11:53:46 49° NNW 12:00:35 10° NE daylight
24 Aug - 13:44:23 10° WNW 13:48:31 16° NNW 13:52:31 10° NNE daylight
24 Aug - 19:31:48 10° NNW 19:36:17 19° NNE 19:40:49 10° ENE visible
24 Aug - 21:24:10 10° NW 21:30:37 67° NNE 21:37:24 10° ESE night (unlit)
24 Aug - 23:18:48 10° W 23:24:46 34° SSW 23:31:06 10° SE night (unlit)
25 Aug - 01:19:00 10° SSW 01:19:47 10° SSW 01:20:34 10° SSW visible
25 Aug - 07:07:23 10° S 07:10:16 12° SSE 07:13:08 10° SE daylight
25 Aug - 08:58:15 10° SW 09:05:25 38° SSE 09:12:19 10° E daylight
25 Aug - 10:52:11 10° WSW 10:59:50 68° NNW 11:07:03 10° NE daylight
25 Aug - 12:49:01 10° WNW 12:54:24 22° NNW 12:59:36 10° NNE daylight
25 Aug - 18:38:54 10° NNW 18:42:16 14° NNE 18:45:38 10° NE visible
25 Aug - 20:30:41 10° NW 20:36:52 47° NNE 20:43:14 10° ESE night (unlit)
25 Aug - 22:24:38 10° WNW 22:30:55 47° SSW 22:37:32 10° SE night (unlit)
26 Aug - 00:22:13 10° SW 00:25:35 14° SSW 00:29:03 10° S visible
26 Aug - 08:04:46 10° SSW 08:11:20 29° SSE 08:17:46 10° E daylight
26 Aug - 09:58:03 10° WSW 10:05:53 89° SSE 10:13:20 10° ENE daylight
26 Aug - 11:53:59 10° W 12:00:22 29° NNW 12:06:26 10° NNE daylight
26 Aug - 13:55:00 10° NNW 13:55:40 10° NNW 13:56:19 10° N daylight
26 Aug - 17:46:32 10° N 17:48:09 11° NNE 17:49:45 10° NNE visible
26 Aug - 19:37:19 10° NW 19:43:04 33° NNE 19:48:54 10° E visible
26 Aug - 21:30:42 10° WNW 21:37:09 67° SSW 21:43:52 10° SE night (unlit)
26 Aug - 23:26:59 10° WSW 23:31:31 19° SSW 23:36:13 10° SSE night (unlit)
27 Aug - 07:11:30 10° SSW 07:17:12 21° SSE 07:22:50 10° ESE daylight
27 Aug - 09:04:05 10° SW 09:11:54 67° SSE 09:19:26 10° ENE daylight
27 Aug - 10:59:14 10° W 11:06:21 40° NNW 11:13:07 10° NE daylight
27 Aug - 12:57:58 10° NW 13:01:23 14° NNW 13:04:45 10° N daylight
27 Aug - 18:44:02 10° NNW 18:49:12 25° NNE 18:54:20 10° ENE visible
27 Aug - 20:36:56 10° WNW 20:43:24 87° NNE 20:50:04 10° ESE night (unlit)
27 Aug - 22:32:16 10° W 22:37:34 26° SSW 22:43:05 10° SSE night (unlit)
28 Aug - 06:18:35 10° S 06:22:59 16° SSE 06:27:23 10° ESE daylight
28 Aug - 08:10:19 10° SW 08:17:53 49° SSE 08:25:17 10° ENE daylight
28 Aug - 10:04:45 10° WSW 10:12:20 54° NNW 10:19:36 10° NE daylight
28 Aug - 12:02:17 10° WNW 12:07:11 18° NNW 12:11:56 10° NNE daylight
28 Aug - 17:50:53 10° NNW 17:55:15 18° NNE 17:59:33 10° ENE visible
28 Aug - 19:43:17 10° NW 19:49:40 62° NNE 19:56:08 10° ESE visible
28 Aug - 21:37:52 10° W 21:43:42 35° SSW 21:49:46 10° SE night (unlit)
29 Aug - 05:26:30 10° S 05:28:42 11° SSE 05:30:53 10° SE daylight
29 Aug - 07:16:45 10° SW 07:23:50 37° SSE 07:30:53 10° E daylight
29 Aug - 09:10:28 10° WSW 09:18:20 73° NNW 09:25:57 10° NE daylight
29 Aug - 11:07:01 10° WNW 11:13:01 24° NNW 11:18:48 10° NNE daylight
29 Aug - 16:57:51 10° NNW 17:01:11 14° NNE 17:04:27 10° NE visible
29 Aug - 18:49:45 10° NW 18:55:54 44° NNE 19:02:02 10° E visible
29 Aug - 20:43:43 10° WNW 20:49:56 50° SSW 20:56:17 10° SE night (unlit)
29 Aug - 22:41:14 10° SW 22:44:24 14° SSW 22:47:37 10° S night (unlit)
30 Aug - 06:23:23 10° SSW 06:29:45 27° SSE 06:36:09 10° E daylight
30 Aug - 08:16:25 10° WSW 08:24:19 85° SSE 08:32:06 10° ENE daylight
30 Aug - 10:12:06 10° W 10:18:54 32° NNW 10:25:30 10° NE daylight
30 Aug - 12:11:43 10° NW 12:14:18 12° NNW 12:16:51 10° N daylight
30 Aug - 16:05:14 10° N 16:07:00 11° NNE 16:08:46 10° NNE visible
30 Aug - 17:56:19 10° NW 18:02:05 32° NNE 18:07:45 10° E visible
30 Aug - 19:49:44 10° WNW 19:56:12 71° SSW 20:02:41 10° SE night (unlit)
30 Aug - 21:45:59 10° WSW 21:50:25 19° SSW 21:54:57 10° SSE night (unlit)
31 Aug - 05:30:17 10° SSW 05:35:37 20° SSE 05:41:01 10° ESE daylight
31 Aug - 07:22:34 10° SW 07:30:18 63° SSE 07:38:02 10° ENE daylight
31 Aug - 09:17:27 10° W 09:24:49 43° NNW 09:32:02 10° NE daylight
31 Aug - 11:15:41 10° NW 11:19:58 16° NNW 11:24:09 10° NNE daylight
31 Aug - 17:02:56 10° NNW 17:08:11 24° NNE 17:13:16 10° ENE visible
31 Aug - 18:55:55 10° WNW 19:02:29 82° NNE 19:08:58 10° ESE visible
31 Aug - 20:51:14 10° W 20:56:32 26° SSW 21:01:55 10° SSE night (unlit)
01 Sep - 04:37:39 10° S 04:41:26 14° SSE 04:45:17 10° SE daylight
01 Sep - 06:28:54 10° SW 06:36:17 46° SSE 06:43:45 10° ENE daylight
01 Sep - 08:23:03 10° WSW 08:30:46 58° NNW 08:38:23 10° NE daylight
01 Sep - 10:20:13 10° WNW 10:25:42 20° NNW 10:31:04 10° NNE daylight
01 Sep - 16:09:38 10° NNW 16:14:09 18° NNE 16:18:32 10° ENE visible
01 Sep - 18:02:13 10° NW 18:08:44 58° NNE 18:15:05 10° ESE visible
01 Sep - 19:56:49 10° W 20:02:45 37° SSW 20:08:40 10° SE night (unlit)
02 Sep - 05:35:29 10° SSW 05:42:15 34° SSE 05:49:11 10° E daylight
02 Sep - 07:28:55 10° WSW 07:36:43 78° NNW 07:44:35 10° NE daylight
02 Sep - 09:25:07 10° W 09:31:29 27° NNW 09:37:45 10° NNE daylight
02 Sep - 11:25:49 10° NNW 11:27:13 11° NNW 11:28:37 10° N daylight
02 Sep - 15:16:26 10° NNW 15:20:01 14° NNE 15:23:30 10° NE daylight
02 Sep - 17:08:35 10° NW 17:14:56 42° NNE 17:21:02 10° E visible
02 Sep - 19:02:36 10° WNW 19:09:00 53° SSW 19:15:17 10° SE visible
02 Sep - 21:00:05 10° WSW 21:03:19 14° SSW 21:06:34 10° S night (unlit)
